Time,TemperatureF,DewpointF,PressureIn,WindDirection,WindDirectionDegrees,WindSpeedMPH,WindSpeedGustMPH,Humidity,HourlyPrecipIn,Conditions,Clouds,dailyrainin,SoftwareType,DateUTC
2013-06-20 00:01:00,77.5,70.9,30.02,SSW,202,0.0,0.0,80,0.00,,,0.00,WeatherCatV1.15B25,2013-06-20 04:01:00,
2013-06-20 00:06:00,77.5,70.9,30.02,SSW,202,0.0,0.0,80,0.00,,,0.00,WeatherCatV1.15B25,2013-06-20 04:06:00,
2013-06-20 00:11:00,77.4,70.7,30.02,SSW,202,0.0,0.0,80,0.00,,,0.00,WeatherCatV1.15B25,2013-06-20 04:11:00,
2013-06-20 00:16:00,77.4,70.7,30.02,SSW,202,0.0,0.0,80,0.00,,,0.00,WeatherCatV1.15B25,2013-06-20 04:16:00,
2013-06-20 00:21:00,77.4,70.7,30.03,SSW,202,0.0,0.0,80,0.00,,,0.00,WeatherCatV1.15B25,2013-06-20 04:21:00,
2013-06-20 00:26:00,77.4,70.7,30.03,SSW,202,0.0,0.0,80,0.00,,,0.00,WeatherCatV1.15B25,2013-06-20 04:26:00,
2013-06-20 00:31:00,77.4,70.7,30.03,WNW,292,0.0,0.0,80,0.00,,,0.00,WeatherCatV1.15B25,2013-06-20 04:31:00,
2013-06-20 00:36:00,77.4,70.7,30.03,West,270,0.0,0.0,80,0.00,,,0.00,WeatherCatV1.15B25,2013-06-20 04:36:00,
2013-06-20 00:41:00,77.2,70.9,30.02,WNW,292,0.0,0.0,81,0.00,,,0.00,WeatherCatV1.15B25,2013-06-20 04:41:00,
2013-06-20 00:46:00,77.2,70.9,30.03,SSW,202,0.0,0.0,81,0.00,,,0.00,WeatherCatV1.15B25,2013-06-20 04:46:00,
2013-06-20 00:51:00,77.2,70.9,30.03,SSW,202,0.0,0.0,81,0.00,,,0.00,WeatherCatV1.15B25,2013-06-20 04:51:00,
2013-06-20 00:56:00,76.8,71.1,30.02,SSW,202,0.0,0.0,82,0.00,,,0.00,WeatherCatV1.15B25,2013-06-20 04:56:00,
2013-06-20 01:01:00,76.8,70.9,30.02,SSW,202,0.0,0.0,82,0.00,,,0.00,WeatherCatV1.15B25,2013-06-20 05:01:00,
2013-06-20 01:06:00,76.6,70.7,30.02,SSW,202,0.0,0.0,82,0.00,,,0.00,WeatherCatV1.15B25,2013-06-20 05:06:00,
2013-06-20 01:11:00,76.6,70.7,30.01,SSW,202,0.0,0.0,82,0.00,,,0.00,WeatherCatV1.15B25,2013-06-20 05:11:00,
2013-06-20 01:16:00,76.5,70.9,30.01,SSW,202,0.0,0.0,83,0.00,,,0.00,WeatherCatV1.15B25,2013-06-20 05:16:00,
2013-06-20 01:21:00,76.5,70.9,30.01,SSW,202,0.0,0.0,83,0.00,,,0.00,WeatherCatV1.15B25,2013-06-20 05:21:00,
2013-06-20 01:26:00,76.3,70.7,30.01,NW,315,0.0,0.0,83,0.00,,,0.00,WeatherCatV1.15B25,2013-06-20 05:26:00,
2013-06-20 01:31:00,76.1,70.9,30.01,West,270,0.0,0.0,84,0.00,,,0.00,WeatherCatV1.15B25,2013-06-20 05:31:00,
2013-06-20 01:36:00,76.1,70.9,30.02,West,270,0.0,0.0,84,0.00,,,0.00,WeatherCatV1.15B25,2013-06-20 05:36:00,
2013-06-20 01:41:00,75.9,70.8,30.02,West,270,0.0,0.0,84,0.00,,,0.00,WeatherCatV1.15B25,2013-06-20 05:41:00,
2013-06-20 01:46:00,75.9,70.8,30.01,WSW,247,0.0,0.0,84,0.00,,,0.00,WeatherCatV1.15B25,2013-06-20 05:46:00,
2013-06-20 01:51:00,75.9,70.8,30.01,WSW,247,0.0,0.0,84,0.00,,,0.00,WeatherCatV1.15B25,2013-06-20 05:51:00,
2013-06-20 01:56:00,75.7,70.6,30.01,WSW,247,0.0,0.0,84,0.00,,,0.00,WeatherCatV1.15B25,2013-06-20 05:56:00,
2013-06-20 02:01:00,75.7,70.6,30.01,WSW,247,0.0,0.0,84,0.00,,,0.00,WeatherCatV1.15B25,2013-06-20 06:01:00,
2013-06-20 02:06:00,75.7,70.8,30.00,WSW,247,0.0,0.0,85,0.00,,,0.00,WeatherCatV1.15B25,2013-06-20 06:06:00,
2013-06-20 02:11:00,75.6,70.8,30.00,WSW,247,0.0,0.0,85,0.00,,,0.00,WeatherCatV1.15B25,2013-06-20 06:11:00,
2013-06-20 02:16:00,75.6,70.8,30.00,WSW,247,0.0,0.0,85,0.00,,,0.00,WeatherCatV1.15B25,2013-06-20 06:16:00,
2013-06-20 02:21:00,75.4,70.6,30.00,West,270,0.0,0.0,85,0.00,,,0.00,WeatherCatV1.15B25,2013-06-20 06:21:00,
2013-06-20 02:26:00,75.4,70.9,29.99,West,270,0.0,0.0,86,0.00,,,0.00,WeatherCatV1.15B25,2013-06-20 06:26:00,
2013-06-20 02:31:00,75.4,70.9,29.99,West,270,0.0,0.0,86,0.00,,,0.00,WeatherCatV1.15B25,2013-06-20 06:31:00,
2013-06-20 02:36:00,75.4,70.9,29.99,West,270,0.0,0.0,86,0.00,,,0.00,WeatherCatV1.15B25,2013-06-20 06:36:00,
2013-06-20 02:41:00,75.4,70.9,29.99,WSW,247,0.0,0.0,86,0.00,,,0.00,WeatherCatV1.15B25,2013-06-20 06:41:00,
2013-06-20 02:46:00,75.2,70.8,29.99,WSW,247,0.0,0.0,86,0.00,,,0.00,WeatherCatV1.15B25,2013-06-20 06:46:00,
2013-06-20 02:51:00,75.0,70.9,29.99,WSW,247,0.0,0.0,86,0.00,,,0.00,WeatherCatV1.15B25,2013-06-20 06:51:00,
2013-06-20 02:56:00,75.0,70.6,29.99,WSW,247,0.0,0.0,86,0.00,,,0.00,WeatherCatV1.15B25,2013-06-20 06:56:00,
2013-06-20 03:01:00,75.0,70.6,29.99,WSW,247,0.0,0.0,86,0.00,,,0.00,WeatherCatV1.15B25,2013-06-20 07:01:00,
2013-06-20 03:06:00,75.0,70.2,29.99,WSW,247,0.0,0.0,85,0.00,,,0.00,WeatherCatV1.15B25,2013-06-20 07:06:00,
2013-06-20 03:11:00,74.8,70.1,29.99,SW,225,0.0,0.0,85,0.00,,,0.00,WeatherCatV1.15B25,2013-06-20 07:11:00,
2013-06-20 03:16:00,74.8,70.1,29.99,WSW,247,0.0,0.0,85,0.00,,,0.00,WeatherCatV1.15B25,2013-06-20 07:16:00,
2013-06-20 03:21:00,74.8,70.1,29.99,WNW,292,0.0,0.0,85,0.00,,,0.00,WeatherCatV1.15B25,2013-06-20 07:21:00,
2013-06-20 03:26:00,74.5,70.1,29.99,WNW,292,0.0,0.0,86,0.00,,,0.00,WeatherCatV1.15B25,2013-06-20 07:26:00,
2013-06-20 03:31:00,74.5,70.1,29.99,West,270,0.0,0.0,86,0.00,,,0.00,WeatherCatV1.15B25,2013-06-20 07:31:00,
2013-06-20 03:36:00,74.5,70.1,29.99,WSW,247,0.0,0.0,86,0.00,,,0.00,WeatherCatV1.15B25,2013-06-20 07:36:00,
2013-06-20 03:41:00,74.5,70.1,29.99,WSW,247,0.0,0.0,86,0.00,,,0.00,WeatherCatV1.15B25,2013-06-20 07:41:00,
2013-06-20 03:46:00,74.3,69.9,29.98,WSW,247,0.0,0.0,86,0.00,,,0.00,WeatherCatV1.15B25,2013-06-20 07:46:00,
2013-06-20 03:51:00,74.3,69.9,29.99,WSW,247,0.0,0.0,86,0.00,,,0.00,WeatherCatV1.15B25,2013-06-20 07:51:00,
2013-06-20 03:56:00,74.1,69.7,29.99,WSW,247,0.0,0.0,86,0.00,,,0.00,WeatherCatV1.15B25,2013-06-20 07:56:00,
2013-06-20 04:01:00,74.1,69.7,29.99,WSW,247,0.0,0.0,86,0.00,,,0.00,WeatherCatV1.15B25,2013-06-20 08:01:00,
2013-06-20 04:06:00,74.1,69.7,29.98,WSW,247,0.0,0.0,86,0.00,,,0.00,WeatherCatV1.15B25,2013-06-20 08:06:00,
2013-06-20 04:11:00,74.1,69.7,29.98,WSW,247,0.0,0.0,86,0.00,,,0.00,WeatherCatV1.15B25,2013-06-20 08:11:00,
2013-06-20 04:16:00,73.9,69.5,29.98,WSW,247,0.0,0.0,86,0.00,,,0.00,WeatherCatV1.15B25,2013-06-20 08:16:00,
2013-06-20 04:21:00,73.9,69.5,29.98,WSW,247,0.0,0.0,86,0.00,,,0.00,WeatherCatV1.15B25,2013-06-20 08:21:00,
2013-06-20 04:26:00,73.9,69.5,29.98,WSW,247,0.0,0.0,86,0.00,,,0.00,WeatherCatV1.15B25,2013-06-20 08:26:00,
2013-06-20 04:31:00,73.9,69.5,29.98,WSW,247,0.0,0.0,86,0.00,,,0.00,WeatherCatV1.15B25,2013-06-20 08:31:00,
2013-06-20 04:36:00,73.9,69.9,29.99,SW,225,0.0,0.0,87,0.00,,,0.00,WeatherCatV1.15B25,2013-06-20 08:36:00,
2013-06-20 04:41:00,73.9,69.9,29.99,SW,225,0.0,0.0,87,0.00,,,0.00,WeatherCatV1.15B25,2013-06-20 08:41:00,
2013-06-20 04:46:00,73.8,69.7,29.99,SW,225,0.0,0.0,87,0.00,,,0.00,WeatherCatV1.15B25,2013-06-20 08:46:00,
2013-06-20 04:51:00,73.8,69.7,29.99,SW,225,0.0,0.0,87,0.00,,,0.00,WeatherCatV1.15B25,2013-06-20 08:51:00,
2013-06-20 04:56:00,73.8,69.7,29.99,SW,225,0.0,0.0,87,0.00,,,0.00,WeatherCatV1.15B25,2013-06-20 08:56:00,
2013-06-20 05:01:00,73.6,69.5,29.99,SW,225,0.0,0.0,87,0.00,,,0.00,WeatherCatV1.15B25,2013-06-20 09:01:00,
2013-06-20 05:06:00,73.6,69.5,29.99,SW,225,0.0,0.0,87,0.00,,,0.00,WeatherCatV1.15B25,2013-06-20 09:06:00,
2013-06-20 05:11:00,73.6,69.5,29.99,SW,225,0.0,0.0,87,0.00,,,0.00,WeatherCatV1.15B25,2013-06-20 09:11:00,
2013-06-20 05:16:00,73.6,69.5,30.00,SW,225,0.0,0.0,87,0.00,,,0.00,WeatherCatV1.15B25,2013-06-20 09:16:00,
2013-06-20 05:21:00,73.4,69.3,30.00,SW,225,0.0,0.0,87,0.00,,,0.00,WeatherCatV1.15B25,2013-06-20 09:21:00,
2013-06-20 05:26:00,73.4,69.3,30.00,SW,225,0.0,0.0,87,0.00,,,0.00,WeatherCatV1.15B25,2013-06-20 09:26:00,
2013-06-20 05:31:00,73.4,69.3,30.00,SW,225,0.0,0.0,87,0.00,,,0.00,WeatherCatV1.15B25,2013-06-20 09:31:00,
2013-06-20 05:36:00,73.4,69.3,30.00,SW,225,0.0,0.0,87,0.00,,,0.00,WeatherCatV1.15B25,2013-06-20 09:36:00,
2013-06-20 05:41:00,73.2,69.1,30.00,SW,225,0.0,0.0,87,0.00,,,0.00,WeatherCatV1.15B25,2013-06-20 09:41:00,
2013-06-20 05:46:00,73.2,69.1,30.01,SW,225,0.0,0.0,87,0.00,,,0.00,WeatherCatV1.15B25,2013-06-20 09:46:00,
2013-06-20 05:51:00,73.2,69.1,30.01,SW,225,0.0,0.0,87,0.00,,,0.00,WeatherCatV1.15B25,2013-06-20 09:51:00,
2013-06-20 05:56:00,73.2,69.1,30.01,SW,225,0.0,0.0,87,0.00,,,0.00,WeatherCatV1.15B25,2013-06-20 09:56:00,
2013-06-20 06:01:00,73.2,69.1,30.01,SW,225,0.0,0.0,87,0.00,,,0.00,WeatherCatV1.15B25,2013-06-20 10:01:00,
2013-06-20 06:06:00,73.2,69.1,30.01,SW,225,0.0,0.0,87,0.00,,,0.00,WeatherCatV1.15B25,2013-06-20 10:06:00,
2013-06-20 06:11:00,73.2,69.5,30.01,SW,225,0.0,0.0,88,0.00,,,0.00,WeatherCatV1.15B25,2013-06-20 10:11:00,
2013-06-20 06:16:00,73.2,69.5,30.02,SW,225,0.0,0.0,88,0.00,,,0.00,WeatherCatV1.15B25,2013-06-20 10:16:00,
2013-06-20 06:21:00,73.2,69.5,30.02,SW,225,0.0,0.0,88,0.00,,,0.00,WeatherCatV1.15B25,2013-06-20 10:21:00,
2013-06-20 06:26:00,73.2,69.5,30.02,SW,225,0.0,0.0,88,0.00,,,0.00,WeatherCatV1.15B25,2013-06-20 10:26:00,
2013-06-20 06:31:00,73.2,69.5,30.02,SW,225,0.0,0.0,88,0.00,,,0.00,WeatherCatV1.15B25,2013-06-20 10:31:00,
2013-06-20 06:36:00,73.2,69.5,30.03,SW,225,0.0,0.0,88,0.00,,,0.00,WeatherCatV1.15B25,2013-06-20 10:36:00,
2013-06-20 06:41:00,73.2,69.5,30.03,SW,225,0.0,0.0,88,0.00,,,0.00,WeatherCatV1.15B25,2013-06-20 10:41:00,
2013-06-20 06:46:00,73.4,69.7,30.03,SW,225,0.0,0.0,88,0.00,,,0.00,WeatherCatV1.15B25,2013-06-20 10:46:00,
2013-06-20 06:51:00,73.2,69.5,30.03,SW,225,0.0,0.0,88,0.00,,,0.00,WeatherCatV1.15B25,2013-06-20 10:51:00,
2013-06-20 06:56:00,73.2,69.5,30.03,SW,225,0.0,0.0,88,0.00,,,0.00,WeatherCatV1.15B25,2013-06-20 10:56:00,
2013-06-20 07:01:00,73.4,69.7,30.03,WSW,247,0.0,0.0,88,0.00,,,0.00,WeatherCatV1.15B25,2013-06-20 11:01:00,
2013-06-20 07:06:00,73.4,69.7,30.03,WSW,247,0.0,0.0,88,0.00,,,0.00,WeatherCatV1.15B25,2013-06-20 11:06:00,
2013-06-20 07:11:00,73.4,69.7,30.04,SW,225,0.0,0.0,88,0.00,,,0.00,WeatherCatV1.15B25,2013-06-20 11:11:00,
2013-06-20 07:16:00,73.6,69.8,30.04,SW,225,0.0,0.0,88,0.00,,,0.00,WeatherCatV1.15B25,2013-06-20 11:16:00,
2013-06-20 07:21:00,73.6,69.8,30.04,WSW,247,0.0,0.0,88,0.00,,,0.00,WeatherCatV1.15B25,2013-06-20 11:21:00,
2013-06-20 07:26:00,73.8,70.0,30.03,SW,225,0.0,0.0,88,0.00,,,0.00,WeatherCatV1.15B25,2013-06-20 11:26:00,
2013-06-20 07:31:00,73.8,70.0,30.04,SSW,202,0.0,0.0,88,0.00,,,0.00,WeatherCatV1.15B25,2013-06-20 11:31:00,
2013-06-20 07:36:00,73.9,70.2,30.04,SW,225,0.0,0.0,88,0.00,,,0.00,WeatherCatV1.15B25,2013-06-20 11:36:00,
2013-06-20 07:41:00,74.1,70.4,30.05,WSW,247,0.0,0.0,88,0.00,,,0.00,WeatherCatV1.15B25,2013-06-20 11:41:00,
2013-06-20 07:46:00,74.1,70.4,30.05,WSW,247,0.0,0.0,88,0.00,,,0.00,WeatherCatV1.15B25,2013-06-20 11:46:00,
2013-06-20 07:51:00,74.3,70.6,30.05,West,270,0.0,0.0,88,0.00,,,0.00,WeatherCatV1.15B25,2013-06-20 11:51:00,
2013-06-20 07:56:00,74.5,71.1,30.04,SW,225,0.0,0.0,89,0.00,,,0.00,WeatherCatV1.15B25,2013-06-20 11:56:00,
2013-06-20 08:01:00,74.8,71.4,30.05,SW,225,0.0,0.0,89,0.00,,,0.00,WeatherCatV1.15B25,2013-06-20 12:01:00,
2013-06-20 08:06:00,75.0,71.6,30.05,SW,225,0.0,0.0,89,0.00,,,0.00,WeatherCatV1.15B25,2013-06-20 12:06:00,
2013-06-20 08:11:00,75.4,72.0,30.05,WSW,247,0.0,0.0,89,0.00,,,0.00,WeatherCatV1.15B25,2013-06-20 12:11:00,
2013-06-20 08:16:00,75.6,72.1,30.06,WSW,247,0.0,0.0,89,0.00,,,0.00,WeatherCatV1.15B25,2013-06-20 12:16:00,
2013-06-20 08:21:00,75.9,72.5,30.06,SSW,202,0.0,0.0,89,0.00,,,0.00,WeatherCatV1.15B25,2013-06-20 12:21:00,
2013-06-20 08:26:00,76.3,72.9,30.06,WSW,247,0.0,0.0,89,0.00,,,0.00,WeatherCatV1.15B25,2013-06-20 12:26:00,
2013-06-20 08:31:00,76.6,73.2,30.06,SW,225,0.0,0.0,89,0.00,,,0.00,WeatherCatV1.15B25,2013-06-20 12:31:00,
2013-06-20 08:36:00,77.0,73.6,30.06,SW,225,0.0,0.0,89,0.00,,,0.00,WeatherCatV1.15B25,2013-06-20 12:36:00,
2013-06-20 08:41:00,77.4,73.9,30.06,SW,225,0.0,0.0,89,0.00,,,0.00,WeatherCatV1.15B25,2013-06-20 12:41:00,
2013-06-20 08:46:00,77.5,74.1,30.06,SSW,202,0.0,0.0,89,0.00,,,0.00,WeatherCatV1.15B25,2013-06-20 12:46:00,
2013-06-20 08:51:00,78.3,74.8,30.06,WSW,247,0.0,0.0,89,0.00,,,0.00,WeatherCatV1.15B25,2013-06-20 12:51:00,
2013-06-20 08:56:00,78.6,75.2,30.07,WSW,247,0.0,0.0,89,0.00,,,0.00,WeatherCatV1.15B25,2013-06-20 12:56:00,
2013-06-20 09:01:00,79.0,75.5,30.07,SW,225,0.0,0.0,89,0.00,,,0.00,WeatherCatV1.15B25,2013-06-20 13:01:00,
2013-06-20 09:06:00,79.3,75.5,30.06,SSW,202,0.0,0.0,88,0.00,,,0.00,WeatherCatV1.15B25,2013-06-20 13:06:00,
2013-06-20 09:11:00,79.9,76.0,30.06,SSW,202,0.0,0.0,88,0.00,,,0.00,WeatherCatV1.15B25,2013-06-20 13:11:00,
2013-06-20 09:16:00,80.4,76.5,30.06,West,270,0.0,0.0,88,0.00,,,0.00,WeatherCatV1.15B25,2013-06-20 13:16:00,
2013-06-20 09:21:00,81.1,76.9,30.07,WNW,292,0.0,0.0,87,0.00,,,0.00,WeatherCatV1.15B25,2013-06-20 13:21:00,
2013-06-20 09:26:00,81.5,77.2,30.06,SSW,202,1.1,1.1,87,0.00,,,0.00,WeatherCatV1.15B25,2013-06-20 13:26:00,
2013-06-20 09:31:00,82.0,77.4,30.07,WSW,247,0.0,0.0,86,0.00,,,0.00,WeatherCatV1.15B25,2013-06-20 13:31:00,
2013-06-20 09:36:00,82.8,77.8,30.06,West,270,0.0,0.0,85,0.00,,,0.00,WeatherCatV1.15B25,2013-06-20 13:36:00,
2013-06-20 09:41:00,82.9,77.6,30.07,WSW,247,1.3,1.3,84,0.00,,,0.00,WeatherCatV1.15B25,2013-06-20 13:41:00,
2013-06-20 09:46:00,83.1,77.4,30.07,WSW,247,0.0,0.0,83,0.00,,,0.00,WeatherCatV1.15B25,2013-06-20 13:46:00,
2013-06-20 09:51:00,83.1,77.4,30.06,WSW,247,0.0,0.9,83,0.00,,,0.00,WeatherCatV1.15B25,2013-06-20 13:51:00,
2013-06-20 09:56:00,83.3,77.3,30.06,NNE,22,1.1,1.1,82,0.00,,,0.00,WeatherCatV1.15B25,2013-06-20 13:56:00,
2013-06-20 10:01:00,83.5,77.4,30.07,WSW,247,1.1,1.1,82,0.00,,,0.00,WeatherCatV1.15B25,2013-06-20 14:01:00,
2013-06-20 10:06:00,83.5,77.4,30.07,WSW,247,1.1,1.1,82,0.00,,,0.00,WeatherCatV1.15B25,2013-06-20 14:06:00,
2013-06-20 10:11:00,83.7,77.6,30.07,WNW,292,0.0,0.0,82,0.00,,,0.00,WeatherCatV1.15B25,2013-06-20 14:11:00,
2013-06-20 10:16:00,83.5,77.1,30.07,WSW,247,0.0,0.0,81,0.00,,,0.00,WeatherCatV1.15B25,2013-06-20 14:16:00,
2013-06-20 10:21:00,83.7,77.2,30.07,WSW,247,0.0,0.0,81,0.00,,,0.00,WeatherCatV1.15B25,2013-06-20 14:21:00,
2013-06-20 10:26:00,83.7,77.2,30.07,SW,225,0.0,0.0,81,0.00,,,0.00,WeatherCatV1.15B25,2013-06-20 14:26:00,
2013-06-20 10:31:00,83.5,77.1,30.08,WSW,247,0.0,0.0,81,0.00,,,0.00,WeatherCatV1.15B25,2013-06-20 14:31:00,
2013-06-20 10:36:00,83.5,77.1,30.08,WNW,292,0.0,3.8,81,0.00,,,0.00,WeatherCatV1.15B25,2013-06-20 14:36:00,
2013-06-20 10:41:00,83.3,76.9,30.08,ESE,112,0.0,0.0,81,0.00,,,0.00,WeatherCatV1.15B25,2013-06-20 14:41:00,
2013-06-20 10:46:00,83.5,77.1,30.08,NNW,337,0.0,0.0,81,0.00,,,0.00,WeatherCatV1.15B25,2013-06-20 14:46:00,
2013-06-20 10:51:00,83.5,77.1,30.08,NNE,22,1.6,3.8,81,0.00,,,0.00,WeatherCatV1.15B25,2013-06-20 14:51:00,
2013-06-20 10:56:00,83.5,77.1,30.08,ENE,67,0.9,0.9,81,0.00,,,0.00,WeatherCatV1.15B25,2013-06-20 14:56:00,
2013-06-20 11:01:00,83.5,77.1,30.08,NNE,22,0.0,0.0,81,0.00,,,0.00,WeatherCatV1.15B25,2013-06-20 15:01:00,
2013-06-20 11:06:00,83.1,76.7,30.09,ENE,67,2.9,2.9,81,0.00,,,0.00,WeatherCatV1.15B25,2013-06-20 15:06:00,
2013-06-20 11:11:00,83.1,76.7,30.09,ENE,67,1.3,1.3,81,0.00,,,0.00,WeatherCatV1.15B25,2013-06-20 15:11:00,
2013-06-20 11:16:00,83.1,76.7,30.09,NNE,22,1.6,1.6,81,0.00,,,0.00,WeatherCatV1.15B25,2013-06-20 15:16:00,
2013-06-20 11:21:00,83.3,77.3,30.08,ESE,112,3.4,3.4,82,0.00,,,0.00,WeatherCatV1.15B25,2013-06-20 15:21:00,
2013-06-20 11:26:00,83.7,77.6,30.08,ENE,67,6.0,6.0,82,0.00,,,0.00,WeatherCatV1.15B25,2013-06-20 15:26:00,
2013-06-20 11:31:00,84.0,77.9,30.09,NE,45,2.5,2.5,82,0.00,,,0.00,WeatherCatV1.15B25,2013-06-20 15:31:00,
2013-06-20 11:36:00,84.4,77.9,30.09,ENE,67,4.0,4.0,81,0.00,,,0.00,WeatherCatV1.15B25,2013-06-20 15:36:00,
2013-06-20 11:41:00,84.7,77.9,30.09,NNE,22,2.2,2.2,80,0.00,,,0.00,WeatherCatV1.15B25,2013-06-20 15:41:00,
2013-06-20 11:46:00,85.1,78.6,30.09,ENE,67,5.4,5.4,81,0.00,,,0.00,WeatherCatV1.15B25,2013-06-20 15:46:00,
2013-06-20 11:51:00,85.3,78.0,30.09,NNE,22,4.5,4.5,79,0.00,,,0.00,WeatherCatV1.15B25,2013-06-20 15:51:00,
2013-06-20 11:56:00,84.9,77.7,30.09,ENE,67,0.9,0.9,79,0.00,,,0.00,WeatherCatV1.15B25,2013-06-20 15:56:00,
2013-06-20 12:01:00,84.7,77.5,30.09,ENE,67,2.2,2.2,79,0.00,,,0.00,WeatherCatV1.15B25,2013-06-20 16:01:00,
2013-06-20 12:06:00,85.1,77.5,30.09,ENE,67,7.4,7.4,78,0.00,,,0.00,WeatherCatV1.15B25,2013-06-20 16:06:00,
2013-06-20 12:11:00,84.9,76.5,30.09,ENE,67,2.7,2.7,76,0.00,,,0.00,WeatherCatV1.15B25,2013-06-20 16:11:00,
2013-06-20 12:16:00,84.7,75.9,30.09,NE,45,0.0,0.0,75,0.00,,,0.00,WeatherCatV1.15B25,2013-06-20 16:16:00,
2013-06-20 12:21:00,84.6,75.7,30.09,North,0,2.9,2.9,75,0.00,,,0.00,WeatherCatV1.15B25,2013-06-20 16:21:00,
2013-06-20 12:26:00,84.4,75.2,30.09,North,0,0.9,2.5,74,0.00,,,0.00,WeatherCatV1.15B25,2013-06-20 16:26:00,
2013-06-20 12:31:00,83.8,74.8,30.08,NNE,22,0.0,0.0,74,0.00,,,0.00,WeatherCatV1.15B25,2013-06-20 16:31:00,
2013-06-20 12:36:00,83.7,74.9,30.08,SW,225,0.0,0.0,75,0.00,,,0.00,WeatherCatV1.15B25,2013-06-20 16:36:00,
2013-06-20 12:41:00,83.5,74.7,30.09,NNE,22,0.0,0.0,75,0.00,,,0.00,WeatherCatV1.15B25,2013-06-20 16:41:00,
2013-06-20 12:46:00,82.9,74.4,30.10,NE,45,0.0,0.0,75,0.00,,,0.00,WeatherCatV1.15B25,2013-06-20 16:46:00,
2013-06-20 12:51:00,82.2,73.9,30.10,ESE,112,0.0,1.3,76,0.00,,,0.00,WeatherCatV1.15B25,2013-06-20 16:51:00,
2013-06-20 12:56:00,82.0,74.1,30.09,NE,45,0.0,0.0,77,0.00,,,0.00,WeatherCatV1.15B25,2013-06-20 16:56:00,
2013-06-20 13:01:00,81.3,73.4,30.09,SSE,157,0.0,0.0,77,0.00,,,0.00,WeatherCatV1.15B25,2013-06-20 17:01:00,
2013-06-20 13:06:00,80.4,73.4,30.09,WSW,247,0.0,0.0,79,0.00,,,0.00,WeatherCatV1.15B25,2013-06-20 17:06:00,
2013-06-20 13:11:00,80.1,73.0,30.09,WSW,247,0.0,0.0,79,0.00,,,0.00,WeatherCatV1.15B25,2013-06-20 17:11:00,
2013-06-20 13:16:00,79.5,72.3,30.09,WSW,247,0.0,0.0,79,0.00,,,0.00,WeatherCatV1.15B25,2013-06-20 17:16:00,
2013-06-20 13:21:00,78.8,71.7,30.09,NNE,22,0.0,0.0,79,0.00,,,0.00,WeatherCatV1.15B25,2013-06-20 17:21:00,
2013-06-20 13:26:00,78.6,72.0,30.08,NE,45,0.0,0.0,80,0.00,,,0.00,WeatherCatV1.15B25,2013-06-20 17:26:00,
2013-06-20 13:31:00,78.4,72.1,30.08,NE,45,0.0,0.0,81,0.00,,,0.00,WeatherCatV1.15B25,2013-06-20 17:31:00,
2013-06-20 13:36:00,78.6,72.7,30.08,NE,45,3.1,3.1,82,0.00,,,0.00,WeatherCatV1.15B25,2013-06-20 17:36:00,
2013-06-20 13:41:00,79.3,73.7,30.08,NE,45,2.0,2.0,83,0.00,,,0.00,WeatherCatV1.15B25,2013-06-20 17:41:00,
2013-06-20 13:46:00,80.4,75.1,30.08,NE,45,2.7,2.7,83,0.00,,,0.00,WeatherCatV1.15B25,2013-06-20 17:46:00,
2013-06-20 13:51:00,81.5,75.2,30.09,NNE,22,0.9,2.9,81,0.00,,,0.00,WeatherCatV1.15B25,2013-06-20 17:51:00,
2013-06-20 13:56:00,82.0,75.7,30.09,NE,45,1.6,1.6,81,0.00,,,0.00,WeatherCatV1.15B25,2013-06-20 17:56:00,
2013-06-20 14:01:00,82.9,76.2,30.09,South,180,0.0,7.4,80,0.00,,,0.00,WeatherCatV1.15B25,2013-06-20 18:01:00,
2013-06-20 14:06:00,83.3,76.1,30.10,ESE,112,0.0,3.1,79,0.00,,,0.00,WeatherCatV1.15B25,2013-06-20 18:06:00,
2013-06-20 14:11:00,83.5,76.3,30.09,East,90,3.1,3.1,79,0.00,,,0.00,WeatherCatV1.15B25,2013-06-20 18:11:00,
2013-06-20 14:16:00,83.3,76.4,30.09,ENE,67,8.9,8.9,80,0.00,,,0.00,WeatherCatV1.15B25,2013-06-20 18:16:00,
2013-06-20 14:21:00,82.9,76.2,30.10,NE,45,2.2,6.0,80,0.00,,,0.00,WeatherCatV1.15B25,2013-06-20 18:21:00,
2013-06-20 14:26:00,82.6,75.9,30.09,NNE,22,3.4,3.4,80,0.00,,,0.00,WeatherCatV1.15B25,2013-06-20 18:26:00,
2013-06-20 14:31:00,82.2,75.6,30.09,ENE,67,4.0,5.6,80,0.00,,,0.00,WeatherCatV1.15B25,2013-06-20 18:31:00,
2013-06-20 14:36:00,81.9,75.5,30.09,ENE,67,7.4,7.4,81,0.00,,,0.00,WeatherCatV1.15B25,2013-06-20 18:36:00,
2013-06-20 14:41:00,81.5,75.2,30.09,North,0,2.9,2.9,81,0.00,,,0.00,WeatherCatV1.15B25,2013-06-20 18:41:00,
2013-06-20 14:47:00,81.3,75.0,30.09,NNE,22,5.4,11.0,81,0.00,,,0.00,WeatherCatV1.15B25,2013-06-20 18:47:00,
2013-06-20 14:52:00,81.1,74.8,30.09,North,0,2.2,4.7,81,0.00,,,0.00,WeatherCatV1.15B25,2013-06-20 18:52:00,
2013-06-20 14:57:00,81.0,75.0,30.09,NE,45,3.6,3.6,82,0.00,,,0.00,WeatherCatV1.15B25,2013-06-20 18:57:00,
2013-06-20 15:02:00,80.8,74.8,30.10,NW,315,0.0,0.9,82,0.00,,,0.00,WeatherCatV1.15B25,2013-06-20 19:02:00,
2013-06-20 15:07:00,80.4,74.4,30.09,North,0,0.9,1.8,82,0.00,,,0.00,WeatherCatV1.15B25,2013-06-20 19:07:00,
2013-06-20 15:12:00,80.4,74.4,30.08,NNW,337,1.1,1.1,82,0.00,,,0.00,WeatherCatV1.15B25,2013-06-20 19:12:00,
2013-06-20 15:17:00,79.9,73.9,30.08,NE,45,4.5,4.5,82,0.00,,,0.00,WeatherCatV1.15B25,2013-06-20 19:17:00,
2013-06-20 15:22:00,79.9,73.9,30.09,NNW,337,0.9,0.9,82,0.00,,,0.00,WeatherCatV1.15B25,2013-06-20 19:22:00,
2013-06-20 15:27:00,79.7,74.1,30.08,ESE,112,0.0,0.0,83,0.00,,,0.00,WeatherCatV1.15B25,2013-06-20 19:27:00,
2013-06-20 15:32:00,79.3,73.7,30.09,NNW,337,0.0,3.1,83,0.00,,,0.00,WeatherCatV1.15B25,2013-06-20 19:32:00,
2013-06-20 15:37:00,79.2,73.9,30.08,West,270,0.0,0.0,84,0.00,,,0.00,WeatherCatV1.15B25,2013-06-20 19:37:00,
2013-06-20 15:42:00,79.2,73.9,30.08,ESE,112,4.2,4.2,84,0.00,,,0.00,WeatherCatV1.15B25,2013-06-20 19:42:00,
2013-06-20 15:47:00,79.0,73.7,30.08,North,0,2.2,2.2,84,0.00,,,0.00,WeatherCatV1.15B25,2013-06-20 19:47:00,
2013-06-20 15:52:00,79.0,73.7,30.08,NW,315,0.0,0.0,84,0.00,,,0.00,WeatherCatV1.15B25,2013-06-20 19:52:00,
2013-06-20 15:57:00,79.0,74.1,30.07,ESE,112,5.4,5.4,85,0.00,,,0.00,WeatherCatV1.15B25,2013-06-20 19:57:00,
2013-06-20 16:02:00,78.8,73.9,30.07,NNE,22,0.0,3.1,85,0.00,,,0.00,WeatherCatV1.15B25,2013-06-20 20:02:00,
2013-06-20 16:07:00,78.6,73.8,30.07,NNW,337,1.3,2.0,85,0.00,,,0.00,WeatherCatV1.15B25,2013-06-20 20:07:00,
2013-06-20 16:12:00,78.6,74.1,30.07,NE,45,3.8,3.8,86,0.00,,,0.00,WeatherCatV1.15B25,2013-06-20 20:12:00,
2013-06-20 16:17:00,78.6,74.1,30.06,SE,135,0.0,0.0,86,0.00,,,0.00,WeatherCatV1.15B25,2013-06-20 20:17:00,
2013-06-20 16:22:00,78.4,73.9,30.06,NE,45,2.2,2.2,86,0.00,,,0.00,WeatherCatV1.15B25,2013-06-20 20:22:00,
2013-06-20 16:27:00,78.4,73.9,30.07,SSW,202,0.0,0.0,86,0.00,,,0.00,WeatherCatV1.15B25,2013-06-20 20:27:00,
2013-06-20 16:32:00,78.1,73.6,30.07,North,0,2.0,2.2,86,0.00,,,0.00,WeatherCatV1.15B25,2013-06-20 20:32:00,
2013-06-20 16:37:00,78.1,73.6,30.07,ENE,67,2.2,2.2,86,0.00,,,0.00,WeatherCatV1.15B25,2013-06-20 20:37:00,
2013-06-20 16:42:00,77.9,73.4,30.07,NE,45,3.8,3.8,86,0.00,,,0.00,WeatherCatV1.15B25,2013-06-20 20:42:00,
2013-06-20 16:47:00,77.9,73.8,30.06,ESE,112,3.6,3.6,87,0.00,,,0.00,WeatherCatV1.15B25,2013-06-20 20:47:00,
2013-06-20 16:52:00,77.7,73.6,30.06,ESE,112,0.0,4.7,87,0.00,,,0.00,WeatherCatV1.15B25,2013-06-20 20:52:00,
2013-06-20 16:57:00,77.7,73.6,30.06,SSW,202,0.0,0.0,87,0.00,,,0.00,WeatherCatV1.15B25,2013-06-20 20:57:00,
2013-06-20 17:02:00,77.5,73.4,30.06,SE,135,0.0,0.0,87,0.00,,,0.00,WeatherCatV1.15B25,2013-06-20 21:02:00,
2013-06-20 17:07:00,77.5,73.4,30.06,SE,135,0.0,0.0,87,0.00,,,0.00,WeatherCatV1.15B25,2013-06-20 21:07:00,
2013-06-20 17:12:00,77.5,73.4,30.06,East,90,4.2,4.2,87,0.00,,,0.00,WeatherCatV1.15B25,2013-06-20 21:12:00,
2013-06-20 17:17:00,77.5,73.4,30.06,South,180,1.3,1.3,87,0.00,,,0.00,WeatherCatV1.15B25,2013-06-20 21:17:00,
2013-06-20 17:22:00,77.5,73.4,30.06,South,180,0.0,0.0,87,0.00,,,0.00,WeatherCatV1.15B25,2013-06-20 21:22:00,
2013-06-20 17:27:00,77.5,73.4,30.06,ESE,112,0.0,0.0,87,0.00,,,0.00,WeatherCatV1.15B25,2013-06-20 21:27:00,
2013-06-20 17:32:00,77.7,73.6,30.06,South,180,0.0,0.0,87,0.00,,,0.00,WeatherCatV1.15B25,2013-06-20 21:32:00,
2013-06-20 17:37:00,77.5,73.8,30.05,SSW,202,0.0,0.0,88,0.00,,,0.00,WeatherCatV1.15B25,2013-06-20 21:37:00,
2013-06-20 17:42:00,77.7,73.9,30.06,West,270,0.0,0.0,88,0.00,,,0.00,WeatherCatV1.15B25,2013-06-20 21:42:00,
2013-06-20 17:47:00,77.7,73.9,30.06,SSE,157,0.0,0.0,88,0.00,,,0.00,WeatherCatV1.15B25,2013-06-20 21:47:00,
2013-06-20 17:52:00,77.7,73.9,30.06,SE,135,0.0,0.0,88,0.00,,,0.00,WeatherCatV1.15B25,2013-06-20 21:52:00,
2013-06-20 17:57:00,77.7,73.9,30.06,ENE,67,1.8,1.8,88,0.00,,,0.00,WeatherCatV1.15B25,2013-06-20 21:57:00,
2013-06-20 18:02:00,77.9,74.1,30.06,East,90,1.3,1.3,88,0.00,,,0.00,WeatherCatV1.15B25,2013-06-20 22:02:00,
2013-06-20 18:07:00,78.1,74.3,30.06,SE,135,0.0,0.0,88,0.00,,,0.00,WeatherCatV1.15B25,2013-06-20 22:07:00,
2013-06-20 18:12:00,78.4,74.7,30.06,ESE,112,0.0,0.0,88,0.00,,,0.00,WeatherCatV1.15B25,2013-06-20 22:12:00,
2013-06-20 18:17:00,78.6,74.8,30.06,NNE,22,0.0,0.0,88,0.00,,,0.00,WeatherCatV1.15B25,2013-06-20 22:17:00,
2013-06-20 18:22:00,79.0,75.2,30.06,SSE,157,0.0,0.0,88,0.00,,,0.00,WeatherCatV1.15B25,2013-06-20 22:22:00,
2013-06-20 18:27:00,79.3,75.5,30.06,ESE,112,0.0,0.0,88,0.00,,,0.00,WeatherCatV1.15B25,2013-06-20 22:27:00,
2013-06-20 18:32:00,79.5,75.3,30.05,South,180,0.0,0.0,87,0.00,,,0.00,WeatherCatV1.15B25,2013-06-20 22:32:00,
2013-06-20 18:37:00,79.7,75.5,30.06,SSE,157,1.3,1.3,87,0.00,,,0.00,WeatherCatV1.15B25,2013-06-20 22:37:00,
2013-06-20 18:42:00,79.9,75.3,30.06,SSW,202,0.0,0.0,86,0.00,,,0.00,WeatherCatV1.15B25,2013-06-20 22:42:00,
2013-06-20 18:47:00,80.2,75.3,30.06,SSE,157,0.0,0.0,85,0.00,,,0.00,WeatherCatV1.15B25,2013-06-20 22:47:00,
2013-06-20 18:52:00,80.2,75.3,30.06,ESE,112,1.3,1.3,85,0.00,,,0.00,WeatherCatV1.15B25,2013-06-20 22:52:00,
2013-06-20 18:57:00,80.2,75.3,30.06,South,180,0.0,0.0,85,0.00,,,0.00,WeatherCatV1.15B25,2013-06-20 22:57:00,
2013-06-20 19:02:00,80.2,75.3,30.07,South,180,0.0,0.0,85,0.00,,,0.00,WeatherCatV1.15B25,2013-06-20 23:02:00,
2013-06-20 19:07:00,79.9,75.0,30.07,WSW,247,0.0,0.0,85,0.00,,,0.00,WeatherCatV1.15B25,2013-06-20 23:07:00,
2013-06-20 19:12:00,79.9,75.0,30.07,South,180,0.0,0.0,85,0.00,,,0.00,WeatherCatV1.15B25,2013-06-20 23:12:00,
2013-06-20 19:17:00,79.7,74.4,30.07,South,180,0.0,0.0,84,0.00,,,0.00,WeatherCatV1.15B25,2013-06-20 23:17:00,
2013-06-20 19:22:00,79.5,74.3,30.07,South,180,0.0,0.0,84,0.00,,,0.00,WeatherCatV1.15B25,2013-06-20 23:22:00,
2013-06-20 19:27:00,79.5,74.3,30.07,SE,135,0.0,0.0,84,0.00,,,0.00,WeatherCatV1.15B25,2013-06-20 23:27:00,
2013-06-20 19:32:00,79.3,74.1,30.08,ESE,112,0.0,0.0,84,0.00,,,0.00,WeatherCatV1.15B25,2013-06-20 23:32:00,
2013-06-20 19:37:00,79.3,74.1,30.07,ESE,112,0.0,0.0,84,0.00,,,0.00,WeatherCatV1.15B25,2013-06-20 23:37:00,
2013-06-20 19:42:00,79.2,73.9,30.08,ESE,112,0.0,0.0,84,0.00,,,0.00,WeatherCatV1.15B25,2013-06-20 23:42:00,
2013-06-20 19:47:00,79.0,73.7,30.08,SSE,157,0.0,0.0,84,0.00,,,0.00,WeatherCatV1.15B25,2013-06-20 23:47:00,
2013-06-20 19:52:00,79.0,73.7,30.09,SSE,157,0.0,0.0,84,0.00,,,0.00,WeatherCatV1.15B25,2013-06-20 23:52:00,
2013-06-20 19:57:00,78.6,73.4,30.09,SSE,157,0.0,0.0,84,0.00,,,0.00,WeatherCatV1.15B25,2013-06-20 23:57:00,
2013-06-20 20:02:00,78.4,73.2,30.09,SSE,157,0.0,0.0,84,0.00,,,0.00,WeatherCatV1.15B25,2013-06-21 00:02:00,
2013-06-20 20:07:00,78.4,73.2,30.08,SSE,157,0.0,0.0,84,0.00,,,0.00,WeatherCatV1.15B25,2013-06-21 00:07:00,
2013-06-20 20:12:00,78.3,73.0,30.09,SSE,157,0.0,0.0,84,0.00,,,0.00,WeatherCatV1.15B25,2013-06-21 00:12:00,
2013-06-20 20:17:00,78.1,73.2,30.09,SSE,157,0.0,0.0,85,0.00,,,0.00,WeatherCatV1.15B25,2013-06-21 00:17:00,
2013-06-20 20:22:00,77.9,73.0,30.09,South,180,0.0,0.0,85,0.00,,,0.00,WeatherCatV1.15B25,2013-06-21 00:22:00,
2013-06-20 20:27:00,77.7,72.9,30.09,South,180,0.0,0.0,85,0.00,,,0.00,WeatherCatV1.15B25,2013-06-21 00:27:00,
2013-06-20 20:32:00,77.7,72.9,30.10,South,180,0.0,0.0,85,0.00,,,0.00,WeatherCatV1.15B25,2013-06-21 00:32:00,
2013-06-20 20:37:00,77.7,72.9,30.10,South,180,0.0,0.0,85,0.00,,,0.00,WeatherCatV1.15B25,2013-06-21 00:37:00,
2013-06-20 20:42:00,77.5,72.7,30.10,South,180,0.0,0.0,85,0.00,,,0.00,WeatherCatV1.15B25,2013-06-21 00:42:00,
2013-06-20 20:47:00,77.5,72.7,30.10,South,180,0.0,0.0,85,0.00,,,0.00,WeatherCatV1.15B25,2013-06-21 00:47:00,
2013-06-20 20:52:00,77.5,72.7,30.10,South,180,0.0,0.0,85,0.00,,,0.00,WeatherCatV1.15B25,2013-06-21 00:52:00,
2013-06-20 20:57:00,77.4,72.5,30.10,South,180,0.0,0.0,85,0.00,,,0.00,WeatherCatV1.15B25,2013-06-21 00:57:00,
2013-06-20 21:02:00,77.4,72.9,30.10,NE,45,0.0,0.0,86,0.00,,,0.00,WeatherCatV1.15B25,2013-06-21 01:02:00,
2013-06-20 21:07:00,77.4,72.9,30.10,ENE,67,0.0,0.0,86,0.00,,,0.00,WeatherCatV1.15B25,2013-06-21 01:07:00,
2013-06-20 21:12:00,77.4,72.9,30.09,East,90,0.0,0.0,86,0.00,,,0.00,WeatherCatV1.15B25,2013-06-21 01:12:00,
2013-06-20 21:17:00,77.2,72.7,30.08,ENE,67,0.0,0.0,86,0.00,,,0.00,WeatherCatV1.15B25,2013-06-21 01:17:00,
2013-06-20 21:22:00,77.2,72.7,30.08,ENE,67,0.0,0.0,86,0.00,,,0.00,WeatherCatV1.15B25,2013-06-21 01:22:00,
2013-06-20 21:27:00,77.2,72.7,30.08,ENE,67,0.0,0.0,86,0.00,,,0.00,WeatherCatV1.15B25,2013-06-21 01:27:00,
2013-06-20 21:32:00,77.2,72.7,30.09,West,270,0.0,0.0,86,0.00,,,0.00,WeatherCatV1.15B25,2013-06-21 01:32:00,
2013-06-20 21:37:00,77.2,72.7,30.08,SSW,202,0.0,0.0,86,0.00,,,0.00,WeatherCatV1.15B25,2013-06-21 01:37:00,
2013-06-20 21:42:00,76.8,72.7,30.08,SSW,202,0.0,0.0,87,0.00,,,0.00,WeatherCatV1.15B25,2013-06-21 01:42:00,
2013-06-20 21:47:00,76.8,72.7,30.08,South,180,0.0,0.0,87,0.00,,,0.00,WeatherCatV1.15B25,2013-06-21 01:47:00,
2013-06-20 21:52:00,76.8,72.7,30.08,South,180,0.0,0.0,87,0.00,,,0.00,WeatherCatV1.15B25,2013-06-21 01:52:00,
2013-06-20 21:57:00,76.8,72.7,30.08,ENE,67,0.0,0.0,87,0.00,,,0.00,WeatherCatV1.15B25,2013-06-21 01:57:00,
2013-06-20 22:02:00,76.8,72.7,30.08,NNW,337,0.0,1.1,87,0.00,,,0.00,WeatherCatV1.15B25,2013-06-21 02:02:00,
2013-06-20 22:07:00,76.8,72.7,30.09,North,0,0.0,0.0,87,0.00,,,0.00,WeatherCatV1.15B25,2013-06-21 02:07:00,
2013-06-20 22:12:00,76.8,72.7,30.09,NE,45,0.0,0.0,87,0.00,,,0.00,WeatherCatV1.15B25,2013-06-21 02:12:00,
2013-06-20 22:17:00,76.8,72.7,30.09,NE,45,0.0,0.0,87,0.00,,,0.00,WeatherCatV1.15B25,2013-06-21 02:17:00,
2013-06-20 22:22:00,76.8,72.7,30.09,ENE,67,0.0,0.0,87,0.00,,,0.00,WeatherCatV1.15B25,2013-06-21 02:22:00,
2013-06-20 22:27:00,76.8,72.7,30.09,ENE,67,0.0,0.0,87,0.00,,,0.00,WeatherCatV1.15B25,2013-06-21 02:27:00,
2013-06-20 22:32:00,77.0,72.9,30.08,East,90,0.0,0.0,87,0.00,,,0.00,WeatherCatV1.15B25,2013-06-21 02:32:00,
2013-06-20 22:37:00,77.0,72.9,30.08,East,90,0.9,0.9,87,0.00,,,0.00,WeatherCatV1.15B25,2013-06-21 02:37:00,
2013-06-20 22:42:00,77.0,72.5,30.08,NE,45,2.2,4.0,86,0.00,,,0.00,WeatherCatV1.15B25,2013-06-21 02:42:00,
2013-06-20 22:47:00,77.2,72.7,30.08,NE,45,0.7,0.7,86,0.00,,,0.00,WeatherCatV1.15B25,2013-06-21 02:47:00,
2013-06-20 22:52:00,77.0,72.5,30.08,NNE,22,0.0,0.0,86,0.00,,,0.00,WeatherCatV1.15B25,2013-06-21 02:52:00,
2013-06-20 22:57:00,77.0,72.7,30.09,SE,135,0.0,0.0,86,0.00,,,0.00,WeatherCatV1.15B25,2013-06-21 02:57:00,
2013-06-20 23:02:00,77.0,72.5,30.08,NE,45,3.4,3.4,86,0.00,,,0.00,WeatherCatV1.15B25,2013-06-21 03:02:00,
2013-06-20 23:07:00,77.0,72.5,30.08,ENE,67,4.2,4.2,86,0.00,,,0.00,WeatherCatV1.15B25,2013-06-21 03:07:00,
2013-06-20 23:12:00,76.8,72.3,30.09,ENE,67,0.0,2.2,86,0.00,,,0.00,WeatherCatV1.15B25,2013-06-21 03:12:00,
2013-06-20 23:17:00,76.8,72.3,30.09,NE,45,0.0,1.3,86,0.00,,,0.00,WeatherCatV1.15B25,2013-06-21 03:17:00,
2013-06-20 23:22:00,76.8,72.3,30.09,NNE,22,0.0,0.0,86,0.00,,,0.00,WeatherCatV1.15B25,2013-06-21 03:22:00,
2013-06-20 23:27:00,76.8,72.3,30.09,NW,315,0.0,0.0,86,0.00,,,0.00,WeatherCatV1.15B25,2013-06-21 03:27:00,
2013-06-20 23:32:00,76.8,72.3,30.09,NE,45,0.0,0.0,86,0.00,,,0.00,WeatherCatV1.15B25,2013-06-21 03:32:00,
2013-06-20 23:37:00,76.6,72.1,30.09,ENE,67,0.0,0.0,86,0.00,,,0.00,WeatherCatV1.15B25,2013-06-21 03:37:00,
2013-06-20 23:42:00,76.6,72.1,30.09,NNW,337,0.0,0.0,86,0.00,,,0.00,WeatherCatV1.15B25,2013-06-21 03:42:00,
2013-06-20 23:47:00,76.6,72.5,30.10,North,0,0.0,0.0,87,0.00,,,0.00,WeatherCatV1.15B25,2013-06-21 03:47:00,
2013-06-20 23:52:00,76.6,72.1,30.10,North,0,0.0,0.0,86,0.00,,,0.00,WeatherCatV1.15B25,2013-06-21 03:52:00,
2013-06-20 23:57:00,76.5,72.0,30.09,NNW,337,0.0,1.6,86,0.00,,,0.00,WeatherCatV1.15B25,2013-06-21 03:57:00,